[[{"header":{"parameterUnit":"m.s-1","parameterCategory":1,"la1":30.2991,"la2":30.254,"lo1":-89.0895,"lo2":-89.0444,"dy":0.0017,"dx":0.0017,"nx":28,"ny":28,"refTime":"2024-07-31T03:00:00:Z","depth":0,"parameterNumber":2,"parameterNumberName":"U-component_of_WINDS"},"data":[0,0,0,0,0,0,0,0,0,0,0,0,0,0,0,0,0,0,0,0,0,0,0,0,0,0,0,0,0,0,0,0,0,0,0,0,0,0,0,0,0,0,0,0,0,0,0,0,0,0,0,0,0,0,0,0,0,0,1.2986,1.2987,0,1.3098,1.3099,1.31,1.3084,1.3082,1.308,1.3078,1.3198,1.3203,1.3208,0,0,0,0,0,0,0,0,0,0,0,0,0,1.2762,1.2766,1.2985,1.2987,1.2988,1.3097,1.3099,1.31,1.3084,1.3082,1.3079,1.3077,1.3196,1.3202,1.3208,0,0,0,0,0,0,0,0,0,0,0,0,0,1.2865,1.2767,1.2985,1.2993,1.2995,1.3097,1.3099,1.3101,1.3084,1.3081,1.3079,1.3076,1.3194,1.3201,1.3209,1.3312,0,0,1.3232,1.3235,0,0,0,0,0,0,0,0,1.2859,1.2873,1.299,1.2993,1.2995,1.3073,1.3064,1.3172,1.3085,1.3051,1.3078,1.3075,1.3159,1.3169,1.3197,1.3318,1.3323,1.3232,1.3237,1.324,1.3242,0,0,0,0,0,0,0,1.2852,1.2868,1.303,1.2992,1.2995,1.2992,1.3004,1.3084,1.312,1.3053,1.3052,1.3066,1.316,1.319,1.3199,1.3325,1.3232,1.3239,1.3243,1.3246,1.3536,1.3539,0,0,0,0,0,0,1.2842,1.2862,1.3026,1.3033,1.2918,1.2999,1.3012,1.3051,1.3119,1.3126,1.3068,1.3064,1.3178,1.3191,1.3204,1.3329,1.324,1.3247,1.3251,1.3533,1.3537,1.354,0,0,0,0,0,0,1.2837,1.2857,1.3022,1.2948,1.2968,1.3006,1.305,1.3055,1.3085,1.313,1.3136,1.3092,1.3177,1.3193,1.3285,1.3333,1.325,1.3257,1.3529,1.3534,1.3538,1.358,0,0,0,0,0,0,1.2831,1.2855,1.2894,1.2949,1.2972,1.31,1.3053,1.3059,1.3097,1.3093,1.3154,1.3161,1.3176,1.3274,1.3292,1.3342,1.3263,1.3525,1.3531,1.3537,1.3575,1.3586,1.3596,0,0,0,0,0,1.2823,1.2902,1.2896,1.2916,1.3021,1.3103,1.3117,1.313,1.3101,1.3141,1.317,1.3159,1.3324,1.3283,1.3304,1.3356,1.3522,1.3529,1.3537,1.357,1.3584,1.3595,0,0,0,0,0,0,1.2854,1.2909,1.2903,1.3002,1.3047,1.31,1.315,1.3144,1.3201,1.3195,1.3211,1.3225,1.3318,1.3346,1.33,1.346,1.3419,1.3431,1.3438,1.3451,1.3461,1.3453,1.3269,0,0,0,0,0,1.2872,1.2932,1.2978,1.3061,1.3084,1.3113,1.3149,1.3156,1.3204,1.3224,1.326,1.3309,1.3372,1.3413,1.3473,1.3579,1.3592,1.3625,1.3635,1.3643,1.3654,1.3712,1.3727,1.3564,1.3564,1.3564,0,0,1.291,1.2948,1.2985,1.3068,1.3104,1.3167,1.313,1.3198,1.3246,1.3235,1.3323,1.3351,1.3407,1.3506,1.3551,1.3532,1.3701,1.3653,1.3659,1.3665,1.3721,1.3736,1.375,1.3569,1.3568,1.3567,0,0,1.3012,1.3047,1.3119,1.3156,1.3211,1.3229,1.3247,1.33,1.3318,1.3406,1.3399,1.3457,1.3565,1.3605,1.364,1.3756,1.3749,1.3776,1.383,1.3887,1.3899,1.3911,1.3953,1.3968,1.3786,1.3786,1.3786,0,1.3054,1.3147,1.3158,1.3227,1.3264,1.3256,1.333,1.3366,1.3438,1.3465,1.3442,1.3577,1.3614,1.3722,1.375,1.3778,1.38,1.3769,1.3896,1.3908,1.3919,1.3959,1.3975,1.3789,1.3788,1.3788,1.3788,0,1.3196,1.3261,1.3313,1.3381,1.3424,1.3496,1.3519,1.3561,1.3564,1.3586,1.3676,1.372,1.3789,1.3815,1.382,1.3924,1.3911,1.3892,1.3852,1.3937,1.3975,1.3991,1.3793,1.3792,1.3791,1.379,0,0,1.3321,1.3393,1.3413,1.3443,1.3503,1.3554,1.3626,1.3691,1.3728,1.3778,1.3839,1.393,1.3913,1.3952,1.3961,1.401,1.41,1.3985,1.3987,1.4005,1.4219,1.4233,1.425,1.4095,1.4098,1.4101,1.4214,0,1.3429,1.3554,1.3566,1.3678,1.3739,1.3732,1.3794,1.3838,1.386,1.3916,1.3941,1.4005,1.3978,1.4001,1.405,1.4079,1.4143,1.4071,1.4154,1.4156,1.414,1.427,1.4285,1.439,1.4229,1.4232,1.4234,0,1.3572,1.3625,1.3743,1.3793,1.3819,1.3875,1.3936,1.3989,1.4039,1.4052,1.4095,1.4097,1.4172,1.4128,1.4232,1.4183,1.4217,1.4237,1.4241,1.425,1.42,1.4283,1.4424,1.444,1.4257,1.4255,1.4254,0,1.3653,1.3753,1.3836,1.3863,1.3924,1.3963,1.3991,1.4038,1.4076,1.413,1.4156,1.4219,1.4253,1.4302,1.4321,1.4288,1.4425,1.4383,1.4438,1.4438,1.4468,1.4466,1.4617,1.449,1.449,1.4489,1.4489,0,1.3772,1.3845,1.3873,1.3924,1.4006,1.4019,1.41,1.4126,1.4168,1.4225,1.4223,1.4277,1.4298,1.4356,1.4372,1.4456,1.4472,1.4485,1.4488,1.4485,1.4484,1.4509,1.4502,1.4494,1.4493,1.4492,1.4491,0,1.3876,1.3897,1.3988,1.4038,1.4052,1.411,1.4153,1.4203,1.4224,1.4297,1.4315,1.4348,1.4416,1.444,1.4523,1.4533,1.4631,1.4628,1.4614,1.4615,1.4669,1.4664,1.4842,1.4866,1.4722,1.4724,1.4725,0,1.3951,1.4007,1.4062,1.4099,1.4128,1.4188,1.4227,1.4243,1.4284,1.4344,1.4388,1.4455,1.4509,1.4619,1.4651,1.4715,1.4714,1.4772,1.4723,1.4718,1.4715,1.4711,1.4717,1.4781,1.4782,1.4784,1.4785,0,1.4083,1.409,1.4146,1.4205,1.4251,1.4299,1.4346,1.4377,1.44,1.4446,1.4515,1.4557,1.4641,1.4708,1.4772,1.4802,1.4798,1.4799,1.4816,1.4814,1.4803,1.4809,1.4639,1.4795,1.4794,1.4794,1.4793,1.4793,1.4175,1.4223,1.427,1.4332,1.4368,1.4411,1.4461,1.4487,1.4544,1.4612,1.4618,1.4693,1.4741,1.4827,1.486,1.4919,1.4903,1.4927,1.4933,1.4939,1.4943,1.4793,1.4931,1.4931,1.4931,1.493,1.493,0,1.4306,1.4335,1.4392,1.4456,1.4505,1.4495,1.4546,1.4588,1.4652,1.4697,1.475,1.4829,1.4894,1.4931,1.4996,1.5036,1.5036,1.5053,1.5051,1.5058,1.4953,1.4933,1.5052,1.5052,1.5052,1.5052,1.5052,1.5052,1.438,1.4462,1.4475,1.4576,1.4604,1.4676,1.4706,1.4746,1.4782,1.4869,1.4923,1.4946,1.4988,1.5056,1.5115,1.5124,1.5149,1.5167,1.5175,1.5077,1.5065,1.5053,1.5034,1.5172,1.5173,1.5275,1.5276,1.5276]},{"header":{"parameterUnit":"m.s-1","parameterCategory":1,"la1":30.2991,"la2":30.254,"lo1":-89.0895,"lo2":-89.0444,"dy":0.0017,"dx":0.0017,"nx":28,"ny":28,"refTime":"2024-07-31T03:00:00:Z","depth":0,"parameterNumber":3,"parameterNumberName":"V-component_of_WINDS"},"data":[0,0,0,0,0,0,0,0,0,0,0,0,0,0,0,0,0,0,0,0,0,0,0,0,0,0,0,0,0,0,0,0,0,0,0,0,0,0,0,0,0,0,0,0,0,0,0,0,0,0,0,0,0,0,0,0,0,0,2.3509,2.3509,0,2.3544,2.3544,2.3545,2.3549,2.3549,2.3548,2.3548,2.3582,2.3583,2.3584,0,0,0,0,0,0,0,0,0,0,0,0,0,2.3441,2.3442,2.3509,2.3509,2.351,2.3544,2.3544,2.3545,2.3549,2.3549,2.3548,2.3548,2.3581,2.3583,2.3584,0,0,0,0,0,0,0,0,0,0,0,0,0,2.3473,2.3443,2.3509,2.3516,2.3517,2.3544,2.3544,2.3545,2.3549,2.3549,2.3548,2.3548,2.3581,2.3583,2.3584,2.3606,0,0,2.359,2.3591,0,0,0,0,0,0,0,0,2.3471,2.3475,2.3515,2.3516,2.3517,2.3542,2.3533,2.3565,2.3549,2.3537,2.3548,2.3548,2.3569,2.3571,2.3579,2.3607,2.3609,2.359,2.3591,2.3592,2.3593,0,0,0,0,0,0,0,2.3469,2.3474,2.3523,2.3515,2.3517,2.3516,2.352,2.3539,2.3555,2.3538,2.3538,2.3543,2.3569,2.3577,2.358,2.3609,2.359,2.3592,2.3593,2.3593,2.3651,2.3652,0,0,0,0,0,0,2.3466,2.3472,2.3522,2.3524,2.3492,2.3518,2.3522,2.3534,2.3555,2.3558,2.3543,2.3543,2.3574,2.3578,2.3581,2.3604,2.3592,2.3594,2.3595,2.3651,2.3651,2.3652,0,0,0,0,0,0,2.3464,2.347,2.352,2.3498,2.3504,2.3519,2.3533,2.3535,2.3543,2.3559,2.3561,2.3549,2.3574,2.3579,2.3599,2.3606,2.3594,2.3596,2.365,2.3651,2.3652,2.3653,0,0,0,0,0,0,2.3462,2.347,2.3479,2.3498,2.3505,2.3539,2.3533,2.3536,2.3547,2.3547,2.3565,2.3567,2.3574,2.3596,2.36,2.3608,2.3598,2.365,2.3651,2.3651,2.3652,2.3653,2.3654,0,0,0,0,0,2.346,2.3479,2.348,2.3486,2.3518,2.3539,2.3543,2.3552,2.3547,2.3556,2.3565,2.3567,2.3604,2.3598,2.3603,2.3611,2.3649,2.365,2.3651,2.3652,2.3653,2.3654,0,0,0,0,0,0,2.3461,2.3482,2.3483,2.3509,2.3522,2.354,2.3552,2.3553,2.3568,2.3567,2.3576,2.358,2.3599,2.3607,2.36,2.363,2.3626,2.3628,2.3624,2.3626,2.3627,2.3624,2.3599,0,0,0,0,0,2.3464,2.3481,2.3498,2.3519,2.3525,2.3537,2.3547,2.3551,2.3565,2.3571,2.3582,2.3594,2.3608,2.3618,2.3632,2.3653,2.3655,2.3661,2.3662,2.3663,2.3664,2.3673,2.3674,2.3655,2.3655,2.3655,0,0,2.3471,2.3484,2.3495,2.3519,2.353,2.3545,2.3542,2.3559,2.3569,2.3573,2.3592,2.36,2.3614,2.3634,2.3643,2.3642,2.367,2.3664,2.3665,2.3666,2.3674,2.3676,2.3677,2.3656,2.3656,2.3656,0,0,2.3491,2.3504,2.3521,2.3531,2.3547,2.3555,2.3558,2.3575,2.358,2.36,2.3602,2.3613,2.3639,2.3648,2.3656,2.3674,2.3675,2.3678,2.3684,2.3692,2.3693,2.3695,2.3699,2.3701,2.368,2.368,2.368,0,2.3498,2.3522,2.353,2.3545,2.3554,2.3558,2.3574,2.3583,2.3603,2.3608,2.3606,2.3635,2.3645,2.3665,2.3669,2.3676,2.3679,2.3676,2.3693,2.3694,2.3695,2.37,2.3701,2.368,2.368,2.368,2.368,0,2.3527,2.3543,2.3555,2.3573,2.3583,2.3599,2.3607,2.3616,2.3619,2.3626,2.3643,2.3655,2.3669,2.3675,2.3678,2.3694,2.3692,2.3691,2.3687,2.3697,2.3701,2.3703,2.368,2.368,2.368,2.368,0,0,2.3551,2.357,2.3574,2.3581,2.3597,2.3609,2.3623,2.3637,2.3643,2.3656,2.3666,2.3686,2.3684,2.3693,2.3697,2.3704,2.3714,2.3701,2.3702,2.3702,2.3729,2.3729,2.3731,2.3714,2.3715,2.3715,2.3727,0,2.3571,2.3597,2.3603,2.3625,2.3638,2.3639,2.3651,2.3661,2.3666,2.3677,2.3683,2.3695,2.3693,2.3698,2.3705,2.3711,2.3719,2.371,2.3722,2.3723,2.3718,2.3733,2.3734,2.3745,2.3729,2.3729,2.3729,0,2.3599,2.361,2.3633,2.3644,2.3649,2.366,2.3672,2.3683,2.3692,2.3696,2.3704,2.3706,2.3718,2.3713,2.3729,2.3722,2.3727,2.3731,2.3731,2.3732,2.3727,2.3733,2.3749,2.375,2.3732,2.3732,2.3732,0,2.361,2.3632,2.3648,2.3653,2.3667,2.3674,2.368,2.3689,2.3696,2.3706,2.371,2.3721,2.3727,2.3734,2.3738,2.3735,2.3753,2.3749,2.3754,2.3754,2.3758,2.3758,2.3774,2.3763,2.3763,2.3763,2.3763,0,2.3632,2.3645,2.3652,2.3662,2.3676,2.3681,2.3694,2.37,2.3707,2.3716,2.3718,2.3726,2.3732,2.374,2.3744,2.3754,2.3758,2.3759,2.376,2.3759,2.3758,2.3762,2.3761,2.3763,2.3763,2.3763,2.3763,0,2.3647,2.3653,2.367,2.368,2.3683,2.3692,2.3701,2.3709,2.3713,2.3724,2.3727,2.3734,2.3743,2.3748,2.3761,2.3763,2.3774,2.3775,2.3771,2.3771,2.3776,2.3775,2.3794,2.3796,2.3785,2.3785,2.3785,0,2.366,2.367,2.368,2.3686,2.3692,2.3702,2.3709,2.3713,2.3719,2.3729,2.3736,2.3745,2.3753,2.3768,2.3773,2.3782,2.3782,2.3788,2.3783,2.3781,2.378,2.3779,2.3779,2.3789,2.3789,2.3789,2.3789,0,2.368,2.3682,2.3692,2.3701,2.3709,2.3717,2.3724,2.3729,2.3734,2.3741,2.375,2.3756,2.3768,2.3776,2.3785,2.3789,2.3789,2.379,2.3792,2.379,2.3787,2.3787,2.3772,2.379,2.379,2.379,2.379,2.379,2.3694,2.3701,2.3709,2.3718,2.3724,2.3731,2.3738,2.3742,2.375,2.376,2.3762,2.3771,2.3778,2.3789,2.3793,2.38,2.3798,2.3801,2.3801,2.3802,2.3801,2.3786,2.3801,2.3801,2.3801,2.3801,2.3801,0,2.3712,2.3717,2.3725,2.3735,2.3742,2.3741,2.3749,2.3754,2.3763,2.3769,2.3776,2.3785,2.3793,2.3798,2.3805,2.3809,2.3809,2.3811,2.381,2.3811,2.3803,2.38,2.3811,2.3811,2.3811,2.3811,2.3811,2.3811,2.3723,2.3735,2.3736,2.375,2.3754,2.3764,2.3767,2.3772,2.3777,2.3788,2.3794,2.3797,2.3802,2.3809,2.3815,2.3816,2.3818,2.382,2.3821,2.3813,2.3812,2.3811,2.3808,2.382,2.3821,2.3828,2.3828,2.3828]}]]